Location: Chemnitz
(49.5500°N, 11.5830°E)
Time: 02:34:15
(UTC+01:00)

ISS - Pass Details

Date: 08 January 2018
Orbit: 402 x 407 km, 51.6° (Epoch: 18 January)

Event Time Altitude Azimuth Distance (km) Brightness Sun altitude
Exits shadow 06:38:52 28° 292° (WNW) 799 -2.9 -13.9°
Maximum altitude 06:40:27 78° 14° (NNE) 421 -3.8 -13.6°
Drops below altitude 10° 06:43:45 10° 102° (ESE) 1,468 0.5 -13.1°
Sets 06:45:50 0° 104° (ESE) 2,328 2.1 -12.8°
